Main page
METAR-TAF:

METAR-TAF

Airports :

Ancona, Italy

Falconara Airport

latitude: 43-37N, longitude: 013-22E, elevation: 12 m

Current weather observation

The report was made 47 minutes ago, at 18:50 UTC
Wind 2 kt from variable directions
Temperature 22°C
Humidity 60%
Pressure 1017 hPa
Visibility 10 km or more
no clouds below 1500 m and no cumulonimbus

METAR: LIPY 231850Z VRB02KT CAVOK 22/14 Q1017

Time: 21:37 (19:37 UTC)

Forecast

The report was made 2 hours and 37 minutes ago, at 17:00 UTC
Forecast valid from 23 at 18 UTC to 24 at 18 UTC
Wind 5 kt from variable directions
Visibility 10 km or more
Few clouds at a height of 3000 ft
Becoming
from 24 at 10 UTC to 24 at 12 UTC
Wind 12 kt from the East/Northeast
Becoming
from 24 at 16 UTC to 24 at 18 UTC
Wind 5 kt from variable directions

TAF: LIPY 231700Z 2318/2418 VRB05KT 9999 FEW030 BECMG 2410/2412 07012KT BECMG 2416/2418 VRB05KT

Weather observations and forecasts of more than 4000 airports (METAR and TAF reports).

The available stations are represented by yellow and red dots on the map.

Hover mouse over dot to see the name of the station.

Then click to see weather observations and forecasts.

To change the map : click on the green buttons with a black cross to zoom in, on the green button with a dash to zoom out, or on the green arrows for adjacent maps.


METAR-TAF: